EW6133 Weather Reports


time (UTC)temp
C
wind
direction
speed
KPH
gust
KPH
rain 1hr
cm
rain 24hr
cm
rain mn
cm
humidity
%
barometer
mb
20260505112003 16 241 1.6 4.8 0.00 0.00 0.00 64 1011.7
20260505111505 16 61 1.6 4.8 0.00 0.00 0.00 63 1011.8
20260505111003 16 0 1.6 6.4 0.00 0.00 0.00 63 1011.8
20260505110505 16 213 1.6 9.7 0.00 0.00 0.00 63 1011.8
20260505101742 15 84 1.6 6.4 0.00 0.00 0.00 67 1012.0
20260505101002 15 145 1.6 4.8 0.00 0.00 0.00 68 1012.1
20260505100745 15 257 1.6 4.8 0.00 0.00 0.00 69 1012.2
20260505100004 14 11 1.6 4.8 0.00 0.00 0.00 70 1012.1
20260505095502 14 207 1.6 4.8 0.00 0.00 0.00 70 1012.2
20260505095005 14 261 1.6 6.4 0.00 0.00 0.00 70 1012.3
20260505094505 14 36 1.6 6.4 0.00 0.00 0.00 70 1012.3
20260505094004 14 14 1.6 4.8 0.00 0.00 0.00 70 1012.3
20260505093505 14 217 1.6 3.2 0.00 0.00 0.00 70 1012.3
20260505093005 14 235 0.0 3.2 0.00 0.00 0.00 71 1012.4
20260505092504 14 47 1.6 4.8 0.00 0.00 0.00 72 1012.4
20260505092002 14 236 1.6 6.4 0.00 0.00 0.00 71 1012.3
20260505091503 14 333 1.6 6.4 0.00 0.00 0.00 71 1012.4
20260505091002 14 230 1.6 3.2 0.00 0.00 0.00 72 1012.4
20260505090501 14 61 1.6 8.0 0.00 0.00 0.00 74 1012.4
20260505090000 13 150 1.6 8.0 0.00 0.00 0.00 75 1012.4
20260505085742 13 9 0.0 6.4 0.00 0.00 0.00 76 1012.4
20260505085000 13 208 0.0 3.2 0.00 0.00 0.00 77 1012.4
20260505084459 13 208 1.6 4.8 0.00 0.00 0.00 76 1012.4
20260505084242 13 355 1.6 9.7 0.00 0.00 0.00 78 1012.5
20260505083456 13 50 1.6 9.7 0.00 0.00 0.00 80 1012.4
20260505082959 12 319 1.6 4.8 0.00 0.00 0.00 80 1012.4
20260505082454 12 275 1.6 4.8 0.00 0.00 0.00 81 1012.4
20260505081951 12 236 1.6 4.8 0.00 0.00 0.00 81 1012.4
20260505081450 12 237 0.0 4.8 0.00 0.00 0.00 82 1012.4
20260505080948 12 322 0.0 4.8 0.00 0.00 0.00 83 1012.4
20260505080728 11 338 0.0 4.8 0.00 0.00 0.00 84 1012.5
20260505075948 11 338 0.0 3.2 0.00 0.00 0.00 84 1012.5
20260505075447 11 355 0.0 3.2 0.00 0.00 0.00 84 1012.5
20260505074945 11 14 0.0 3.2 0.00 0.00 0.00 85 1012.5
20260505074446 11 347 0.0 3.2 0.00 0.00 0.00 86 1012.5
20260505073946 11 239 0.0 3.2 0.00 0.00 0.00 86 1012.5
20260505073446 11 239 0.0 3.2 0.00 0.00 0.00 87 1012.5
20260505072940 11 239 0.0 3.2 0.00 0.00 0.00 87 1012.5
20260505072442 11 281 0.0 1.6 0.00 0.00 0.00 88 1012.5
20260505071940 11 281 0.0 1.6 0.00 0.00 0.00 89 1012.5
20260505071442 11 281 0.0 1.6 0.00 0.00 0.00 89 1012.5
20260505070941 11 281 0.0 3.2 0.00 0.00 0.00 89 1012.5
20260505070441 11 281 0.0 3.2 0.00 0.00 0.00 89 1012.6
20260505065942 10 281 0.0 6.4 0.00 0.00 0.00 90 1012.6
20260505065718 10 246 0.0 6.4 0.00 0.00 0.00 90 1012.6
20260505064942 10 41 0.0 4.8 0.00 0.00 0.00 91 1012.6
20260505064438 10 169 0.0 1.6 0.00 0.00 0.00 91 1012.7
20260505063935 10 169 0.0 1.6 0.00 0.00 0.00 91 1012.7
20260505063437 10 169 0.0 1.6 0.00 0.00 0.00 91 1012.7
20260505062937 10 105 0.0 1.6 0.00 0.00 0.00 91 1012.7
20260505062433 10 104 0.0 1.6 0.00 0.00 0.00 91 1012.7
20260505062208 10 104 0.0 1.6 0.00 0.00 0.00 92 1012.7
20260505061708 10 104 0.0 1.6 0.00 0.00 0.00 92 1012.7
20260505060933 10 104 0.0 1.6 0.00 0.00 0.00 92 1012.7
20260505060433 10 36 0.0 1.6 0.00 0.00 0.00 91 1012.7
20260505055931 10 36 0.0 1.6 0.00 0.00 0.00 92 1012.8
20260505055431 10 36 0.0 1.6 0.00 0.00 0.00 92 1012.8
20260505054932 10 36 0.0 1.6 0.00 0.00 0.00 92 1012.8
20260505054432 10 36 0.0 0.0 0.00 0.00 0.00 92 1012.8
20260505054214 10 36 0.0 0.0 0.00 0.00 0.00 92 1012.7
20260505053703 10 36 0.0 0.0 0.00 0.00 0.00 92 1012.8
20260505052921 9 36 0.0 0.0 0.00 0.00 0.00 92 1012.8
20260505052413 9 36 0.0 0.0 0.00 0.00 0.00 92 1012.8
20260505051906 9 36 0.0 0.0 0.00 0.00 0.00 92 1012.8
20260505051409 9 36 0.0 0.0 0.00 0.00 0.00 92 1012.8
20260505050908 9 36 0.0 0.0 0.00 0.00 0.00 92 1012.8
20260505050646 9 36 0.0 0.0 0.00 0.00 0.00 92 1012.7
20260505050143 9 36 0.0 0.0 0.00 0.00 0.00 92 1012.7
20260505041643 9 36 0.0 0.0 0.00 0.00 0.00 92 1012.8
20260505040903 9 36 0.0 0.0 0.00 0.00 0.00 92 1012.8
20260505040403 9 36 0.0 0.0 0.00 0.00 0.00 92 1012.8
20260505035902 9 36 0.0 0.0 0.00 0.00 0.00 92 1012.8
20260505035403 9 36 0.0 0.0 0.00 0.00 0.00 92 1012.8
20260505034902 9 36 0.0 0.0 0.00 0.00 0.00 92 1012.8
20260505034402 9 36 0.0 0.0 0.00 0.00 0.00 92 1012.8
20260505034140 9 36 0.0 0.0 0.00 0.00 0.00 92 1012.8
20260505033403 9 36 0.0 0.0 0.00 0.00 0.00 92 1012.9
20260505032903 9 36 0.0 0.0 0.00 0.00 0.00 92 1013.0
20260505032639 9 36 0.0 0.0 0.00 0.00 0.00 92 1013.0
20260505031902 9 36 0.0 0.0 0.00 0.00 0.00 92 1013.0
20260505031402 9 36 0.0 1.6 0.00 0.00 0.00 92 1012.9
20260505030903 9 36 0.0 1.6 0.00 0.00 0.00 92 1012.9
20260505030403 9 36 0.0 1.6 0.00 0.00 0.00 91 1013.0
20260505025904 9 36 0.0 0.0 0.00 0.00 0.00 91 1013.1
20260505025405 9 36 0.0 0.0 0.00 0.00 0.00 91 1013.0
20260505024904 9 36 0.0 1.6 0.00 0.00 0.00 91 1012.9
20260505024402 9 36 0.0 1.6 0.00 0.00 0.00 91 1012.8
20260505023904 9 36 0.0 0.0 0.00 0.00 0.00 90 1012.9
20260505023404 9 36 0.0 0.0 0.00 0.00 0.00 90 1013.0
20260505023143 10 36 0.0 0.0 0.00 0.00 0.00 90 1012.9
20260505022403 10 36 0.0 0.0 0.00 0.00 0.00 90 1012.9
20260505021901 10 36 0.0 0.0 0.00 0.00 0.00 90 1012.9
20260505021402 10 36 0.0 1.6 0.00 0.00 0.00 90 1012.9
20260505021137 10 36 0.0 1.6 0.00 0.00 0.00 90 1013.0
20260505020642 10 36 0.0 1.6 0.00 0.00 0.00 89 1013.0
20260505015903 10 36 0.0 1.6 0.00 0.00 0.00 90 1013.1
20260505015402 10 36 0.0 3.2 0.00 0.00 0.00 90 1013.2
20260505015138 10 36 0.0 3.2 0.00 0.00 0.00 90 1013.2
20260505014404 10 36 0.0 0.0 0.00 0.00 0.00 90 1013.2
20260505013904 10 36 0.0 0.0 0.00 0.00 0.00 90 1013.3
20260505013404 10 36 0.0 0.0 0.00 0.00 0.00 90 1013.3
20260505012902 10 36 0.0 0.0 0.00 0.00 0.00 90 1013.4
20260505012402 10 36 0.0 1.6 0.00 0.00 0.00 90 1013.4
20260505011901 10 36 0.0 1.6 0.00 0.00 0.00 90 1013.4
20260505011403 10 36 0.0 0.0 0.00 0.00 0.00 90 1013.3
20260505010902 10 36 0.0 0.0 0.00 0.00 0.00 90 1013.4
20260505010405 10 36 0.0 1.6 0.00 0.00 0.00 90 1013.4
20260505005903 10 36 0.0 1.6 0.00 0.00 0.00 89 1013.4
20260505005405 10 36 0.0 1.6 0.00 0.00 0.00 89 1013.4
20260505005140 10 312 0.0 0.0 0.00 0.00 0.00 89 1013.4
20260505004402 10 312 0.0 0.0 0.00 0.00 0.00 89 1013.3
20260505003901 10 312 0.0 0.0 0.00 0.00 0.00 89 1013.3
20260505003401 10 312 0.0 0.0 0.00 0.00 0.00 88 1013.4
20260505002902 10 312 0.0 0.0 0.00 0.00 0.00 88 1013.6
20260505002403 10 312 0.0 0.0 0.00 0.00 0.00 88 1013.6
20260505001902 11 312 0.0 0.0 0.00 0.00 0.00 87 1013.6
20260505001401 11 312 0.0 0.0 0.00 0.00 0.00 87 1013.7
20260505000904 11 312 0.0 0.0 0.00 0.00 0.00 87 1013.8
20260505000405 11 312 0.0 0.0 0.00 0.00 0.00 87 1013.8
20260504235903 11 312 0.0 0.0 0.00 0.00 0.00 87 1013.9
20260504235403 11 312 0.0 0.0 0.00 0.00 0.00 86 1013.9
20260504234903 11 312 0.0 0.0 0.00 0.00 0.00 87 1013.9
20260504234402 11 312 0.0 0.0 0.00 0.00 0.00 86 1013.9
20260504233903 11 312 0.0 0.0 0.00 0.00 0.00 86 1013.9
20260504233642 11 312 0.0 0.0 0.00 0.00 0.00 86 1013.9
20260504232904 11 312 0.0 0.0 0.00 0.00 0.00 86 1013.9
20260504232402 11 311 0.0 0.0 0.00 0.00 0.00 86 1013.9
20260504231903 11 311 0.0 0.0 0.00 0.00 0.00 86 1013.9
20260504231402 11 311 0.0 0.0 0.00 0.00 0.00 86 1013.9
20260504230903 11 311 0.0 1.6 0.00 0.00 0.00 86 1013.9
20260504230402 11 311 0.0 1.6 0.00 0.00 0.00 85 1013.9
20260504225903 11 311 0.0 1.6 0.00 0.00 0.00 85 1013.8
20260504225640 11 311 0.0 1.6 0.00 0.00 0.00 85 1013.9
20260504224903 11 298 0.0 3.2 0.00 0.00 0.00 85 1013.9
20260504224405 11 298 0.0 4.8 0.00 0.00 0.00 85 1013.9
20260504223902 11 323 0.0 4.8 0.00 0.00 0.00 85 1014.0
20260504223403 11 21 0.0 1.6 0.00 0.00 0.00 85 1014.1
20260504223141 11 80 0.0 1.6 0.00 0.00 0.00 85 1014.1
20260504222404 11 80 0.0 1.6 0.00 0.00 0.00 85 1014.1
20260504221903 11 80 0.0 1.6 0.00 0.00 0.00 84 1014.1
20260504221638 11 79 0.0 1.6 0.00 0.00 0.00 84 1014.2
20260504220903 11 79 0.0 1.6 0.00 0.00 0.00 84 1014.2
20260504220404 12 218 0.0 1.6 0.00 0.00 0.00 84 1014.2
20260504215904 12 218 0.0 3.2 0.00 0.00 0.00 84 1014.2
20260504215402 12 218 0.0 3.2 0.00 0.00 0.00 84 1014.1
20260504214904 12 134 0.0 3.2 0.00 0.00 0.00 84 1014.0
20260504214402 12 317 0.0 3.2 0.00 0.00 0.00 84 1014.0
20260504213905 12 89 0.0 1.6 0.00 0.00 0.00 84 1014.1
20260504213405 12 97 0.0 3.2 0.00 0.00 0.00 84 1014.1
20260504212920 12 160 1.6 3.2 0.00 0.00 0.00 84 1014.1
20260504212914 12 96 0.0 3.2 0.00 0.00 0.00 84 1014.1
20260504211927 12 29 0.0 1.6 0.00 0.00 0.00 84 1014.1
20260504211919 12 44 0.0 3.2 0.00 0.00 0.00 84 1014.1
20260504210904 12 153 0.0 3.2 0.00 0.00 0.00 84 1014.1
20260504210639 12 151 0.0 3.2 0.00 0.00 0.00 84 1014.2
20260504205903 12 96 0.0 4.8 0.00 0.00 0.00 84 1014.2
20260504205402 12 247 0.0 4.8 0.00 0.00 0.00 84 1014.1
20260504204902 12 248 0.0 4.8 0.00 0.00 0.00 83 1014.2
20260504204642 12 229 0.0 4.8 0.00 0.00 0.00 83 1014.2
20260504203904 12 235 0.0 1.6 0.00 0.00 0.00 83 1014.2
20260504203403 12 297 0.0 1.6 0.00 0.00 0.00 83 1014.2
20260504202904 12 288 0.0 1.6 0.00 0.00 0.00 83 1014.2
20260504202403 12 327 0.0 1.6 0.00 0.00 0.00 83 1014.1
20260504201904 12 323 0.0 3.2 0.00 0.00 0.00 83 1014.2
20260504201643 12 212 0.0 3.2 0.00 0.00 0.00 83 1014.2
20260504201142 12 43 0.0 1.6 0.00 0.00 0.00 83 1014.1
20260504200429 13 63 0.0 3.2 0.00 0.00 0.00 82 1014.0
20260504200421 12 63 0.0 1.6 0.00 0.00 0.00 82 1014.1
20260504195640 13 63 0.0 3.2 0.00 0.00 0.00 83 1014.0
20260504194905 13 195 0.0 3.2 0.00 0.00 0.00 83 1014.0
20260504194406 13 195 0.0 3.2 0.00 0.00 0.00 83 1013.9
20260504193904 13 190 0.0 3.2 0.00 0.00 0.00 83 1013.8
20260504193403 13 349 0.0 3.2 0.00 0.00 0.00 83 1013.8
20260504192904 13 182 0.0 1.6 0.00 0.00 0.00 83 1013.7
20260504192402 13 209 0.0 1.6 0.00 0.00 0.00 83 1013.7
20260504192140 13 209 0.0 1.6 0.00 0.00 0.00 83 1013.7
20260504191405 13 209 0.0 1.6 0.00 0.00 0.00 83 1013.8
20260504190904 13 205 0.0 0.0 0.00 0.00 0.00 83 1013.7
20260504190641 13 205 0.0 1.6 0.00 0.00 0.00 82 1013.7
20260504185903 13 205 0.0 1.6 0.00 0.00 0.00 82 1013.6
20260504185402 13 205 0.0 1.6 0.00 0.00 0.00 82 1013.6
20260504184903 13 205 0.0 3.2 0.00 0.00 0.00 81 1013.6
20260504184404 13 200 0.0 3.2 0.00 0.00 0.00 82 1013.5
20260504183904 13 80 0.0 1.6 0.00 0.00 0.00 81 1013.4
20260504183402 13 103 0.0 1.6 0.00 0.00 0.00 81 1013.3
20260504182902 14 103 0.0 1.6 0.00 0.00 0.00 81 1013.2
20260504182404 14 134 0.0 1.6 0.00 0.00 0.00 81 1013.3
20260504181903 14 134 0.0 1.6 0.00 0.00 0.00 80 1013.2
20260504181642 14 136 0.0 3.2 0.00 0.00 0.00 80 1013.2
20260504180903 14 16 0.0 3.2 0.00 0.00 0.00 80 1013.2
20260504180402 14 189 0.0 3.2 0.00 0.00 0.00 79 1013.2
20260504175904 14 189 0.0 3.2 0.00 0.00 0.00 79 1013.1
20260504175403 14 185 1.6 6.4 0.00 0.00 0.00 78 1013.1
20260504174903 15 49 0.0 6.4 0.00 0.00 0.00 77 1013.1
20260504174402 15 35 0.0 3.2 0.00 0.00 0.00 77 1013.1
20260504174142 15 274 0.0 4.8 0.00 0.00 0.00 77 1013.2
20260504173402 15 74 0.0 4.8 0.00 0.00 0.00 77 1013.2
20260504172902 15 40 0.0 4.8 0.00 0.00 0.00 77 1013.3
20260504172406 15 154 0.0 4.8 0.00 0.00 0.00 77 1013.3
20260504171903 15 28 0.0 4.8 0.00 0.00 0.00 77 1013.3
20260504171643 15 343 0.0 4.8 0.00 0.00 0.00 77 1013.3
20260504170904 15 19 0.0 3.2 0.00 0.00 0.00 77 1013.4
20260504170404 15 22 0.0 3.2 0.00 0.00 0.00 78 1013.6
20260504160341 15 196 1.6 4.8 0.00 0.00 0.00 78 1013.8
20260504160116 15 320 1.6 4.8 0.00 0.00 0.00 78 1013.8
20260504150833 14 273 0.0 3.2 0.00 0.00 0.00 79 1013.8
20260504150333 14 91 0.0 3.2 0.00 0.00 0.00 80 1013.8
20260504141333 14 262 0.0 3.2 0.00 0.00 0.00 81 1013.8
20260504140831 13 226 0.0 3.2 0.00 0.00 0.00 80 1013.8
20260504140333 13 319 1.6 8.0 0.00 0.00 0.00 80 1013.7
20260504130331 15 321 0.0 4.8 0.00 0.00 0.00 77 1013.6
20260504120305 15 278 0.0 1.6 0.00 0.00 0.00 78 1013.6